Stations météo

réclame
Mon MeteoGroup
Norderney, Allemagne (10113): Température de l'air & dewpoint: 26.06.2020 10:00:00 - 02.07.2020 10:00:00 (CEST)Norderney, Allemagne (10113): Température de l'air 5cm & Température de l'air -5cm: 26.06.2020 10:00:00 - 02.07.2020 10:00:00 (CEST)Norderney, Allemagne (10113): Température de l'air -20cm & Température de l'air -100cm: 26.06.2020 10:00:00 - 02.07.2020 10:00:00 (CEST)Norderney, Allemagne (10113): Vitesse du vent & gusts: 26.06.2020 10:00:00 - 02.07.2020 10:00:00 (CEST)Norderney, Allemagne (10113): Direction du vent: 26.06.2020 10:00:00 - 02.07.2020 10:00:00 (CEST)Norderney, Allemagne (10113): reduced air pressure: 26.06.2020 10:00:00 - 02.07.2020 10:00:00 (CEST)Norderney, Allemagne (10113): visibility: 26.06.2020 10:00:00 - 02.07.2020 10:00:00 (CEST)Norderney, Allemagne (10113): Ensoleillement: 26.06.2020 10:00:00 - 02.07.2020 10:00:00 (CEST)Norderney, Allemagne (10113): Quantités de précipitations: 26.06.2020 10:00:00 - 02.07.2020 10:00:00 (CEST)
Date & Time tt [°C] td [°C] tt 5cm [°C] tt -5cm [°C] tt -20cm [°C] tt -100cm [°C] ff [km/h] ff [knt] fx [km/h] fx [knt] dd ppp [hPa] vv [km] sd [min] rr [mm]
02.07.2020 10:00:00 17,0 12,4 20,8 19,3 17,4 17,6 10 5 15 8 WNW 1008,3 22 39 0,0
02.07.2020 09:00:00 16,7 12,2 18,0 17,5 17,3 17,6 9 5 14 8 W 1007,9 39 0 0,0
02.07.2020 08:00:00 16,2 11,8 17,0 16,5 17,3 17,6 10 6 23 12 WNW 1007,6 32 1 0,0
02.07.2020 07:00:00 16,0 12,6 16,0 16,0 17,4 17,6 17 9 24 13 WNW 1007,3 18 0 0,0
02.07.2020 06:00:00 15,9 12,4 15,4 15,9 17,6 17,6 18 10 26 14 WNW 1006,9 23 0 0,0
02.07.2020 05:00:00 15,8 13,0 14,6 16,0 17,8 17,6 18 10 24 13 WNW 1006,5 22 0 0,0
02.07.2020 04:00:00 15,9 12,6 15,2 16,3 18,0 17,6 18 10 26 14 WNW 1006,5 38 0 0,0
02.07.2020 03:00:00 16,0 12,8 15,4 16,6 18,3 17,6 16 8 25 14 W 1006,6 36 0 0,0
02.07.2020 02:00:00 15,9 13,1 15,2 16,8 18,5 17,6 19 10 35 19 W 1006,5 34 0 0,0
02.07.2020 01:00:00 16,2 13,6 15,9 17,2 18,8 17,6 27 14 40 22 W 1006,3 28 0 0,0
02.07.2020 00:00:00 16,4 14,0 16,1 17,6 19,1 17,6 29 15 49 26 W 1006,0 21 0 0,0
01.07.2020 23:00:00 16,9 14,0 16,5 18,0 19,4 17,6 32 17 46 25 W 1005,5 26 0 0,0
01.07.2020 22:00:00 17,2 13,3 16,2 18,6 19,8 17,7 30 16 51 28 W 1005,2 32 4 0,0
01.07.2020 21:00:00 16,9 14,0 16,1 19,4 20,1 17,7 29 16 44 24 W 1005,0 25 0 0,4
01.07.2020 20:00:00 16,8 14,6 17,2 20,7 20,3 17,7 29 15 46 25 W 1004,8 20 0 0,0
01.07.2020 19:00:00 17,5 14,1 18,5 21,8 20,4 17,7 30 16 42 23 W 1004,4 26 1 0,0
01.07.2020 18:00:00 18,0 15,1 19,0 22,9 20,3 17,7 29 15 39 21 W 1003,9 21 5 0,0
01.07.2020 17:00:00 18,7 15,2 20,9 23,8 19,9 17,8 27 15 40 22 W 1003,7 21 40 0,0
01.07.2020 16:00:00 19,6 15,9 22,2 23,7 19,5 17,8 30 16 40 21 W 1003,3 29 39 0,0
01.07.2020 15:00:00 20,1 15,4 24,2 23,3 19,0 17,8 24 13 40 21 W 1003,3 42 42 0,0
01.07.2020 14:00:00 19,6 16,1 22,6 22,9 18,5 17,8 23 13 40 22 WSW 1003,2 26 32 0,0
01.07.2020 13:00:00 19,9 15,4 22,2 22,6 17,8 17,8 21 12 33 18 SSW 1003,3 35 40 0,0
01.07.2020 12:00:00 19,6 15,8 23,1 21,1 17,2 17,9 21 11 35 19 S 1003,3 35 36 0,0
01.07.2020 11:00:00 18,6 15,2 21,2 20,1 16,6 17,9 16 9 29 16 SSW 1003,8 36 51 0,0
01.07.2020 10:00:00 17,9 15,1 21,0 18,0 16,2 17,9 16 8 28 15 SSW 1003,9 31 17 0,0
01.07.2020 09:00:00 16,4 14,7 17,7 17,0 15,9 17,9 15 8 26 14 S 1004,5 19 43 0,0
01.07.2020 08:00:00 15,2 14,4 15,7 15,3 15,8 18,0 15 8 22 12 S 1004,4 14 29 0,0
01.07.2020 07:00:00 15,0 13,7 14,4 14,7 15,9 18,0 9 5 16 9 S 1004,4 22 0 0,0
01.07.2020 06:00:00 15,1 13,7 14,1 14,2 16,0 18,0 11 6 22 12 WSW 1004,3 21 0 0,0
01.07.2020 05:00:00 14,8 13,8 13,5 14,2 16,1 18,0 13 7 27 15 SW 1004,6 18 0 0,0
01.07.2020 04:00:00 14,8 13,1 13,5 14,4 16,3 18,0 17 9 29 16 SW 1004,7 27 0 0,0
01.07.2020 03:00:00 14,8 13,2 13,5 14,6 16,5 18,1 18 10 29 15 SW 1004,8 31 0 0,0
01.07.2020 02:00:00 15,1 13,2 13,9 14,8 16,7 18,1 17 9 27 15 SW 1005,0 45 0 0,0
01.07.2020 01:00:00 14,9 12,9 13,6 15,0 16,9 18,1 16 9 32 18 SW 1005,1 42 0 0,0
01.07.2020 00:00:00 15,0 12,5 13,4 15,4 17,0 18,1 19 10 31 17 WSW 1005,1 42 0 0,0
30.06.2020 23:00:00 14,3 12,2 13,2 15,7 17,2 18,1 13 7 36 20 SW 1005,2 33 0 0,2
30.06.2020 22:00:00 14,3 12,9 13,6 16,1 17,4 18,2 21 12 34 19 WSW 1005,4 4,3 0 0,1
30.06.2020 21:00:00 16,0 11,9 15,6 16,4 17,5 18,2 20 11 36 20 SW 1005,1 35 0 0,0
30.06.2020 20:00:00 16,1 12,1 16,1 16,9 17,6 18,2 25 13 42 23 SW 1005,4 32 2 0,0
30.06.2020 19:00:00 16,4 11,9 16,5 17,1 17,6 18,2 24 13 48 26 WSW 1005,6 29 0 0,0
30.06.2020 18:00:00 16,3 12,2 16,5 17,2 17,7 18,3 27 15 52 28 WSW 1005,9 23 0 0,0
30.06.2020 17:00:00 16,6 12,2 16,9 17,5 17,7 18,3 32 17 51 28 WSW 1006,0 23 0 0,0
30.06.2020 16:00:00 16,3 11,7 17,0 17,4 17,7 18,3 31 17 51 28 WSW 1005,8 27 0 0,0
30.06.2020 15:00:00 15,8 12,3 16,4 18,1 17,5 18,3 34 19 55 30 SW 1005,6 36 0 0,0
30.06.2020 14:00:00 15,7 12,5 16,5 17,7 17,4 18,3 31 17 51 28 SW 1005,5 32 0 0,0
30.06.2020 13:00:00 15,6 12,6 16,6 17,6 17,3 18,3 32 17 53 29 SW 1005,3 30 0 0,0
30.06.2020 12:00:00 15,4 12,9 15,9 17,7 17,1 18,4 32 17 54 29 SW 1005,1 26 9 0,0
30.06.2020 11:00:00 15,2 12,8 15,6 16,5 17,0 18,4 31 17 50 27 SW 1004,8 36 3 0,0
30.06.2020 10:00:00 14,4 13,0 13,9 15,8 17,1 18,4 31 17 55 30 SW 1004,8 29 0 0,2
30.06.2020 09:00:00 14,0 13,1 13,6 15,6 17,2 18,4 26 14 44 24 SW 1004,6 8 0 0,3
30.06.2020 08:00:00 14,6 12,1 13,4 15,6 17,3 18,4 31 17 51 27 WSW 1004,3 23 0 0,0
30.06.2020 07:00:00 15,1 12,2 14,0 15,5 17,5 18,4 31 17 55 30 SW 1004,2 28 0 0,0
30.06.2020 06:00:00 15,2 12,0 13,8 15,6 17,7 18,4 31 17 55 30 SW 1004,3 16 0 0,0
30.06.2020 05:00:00 14,4 12,4 13,3 15,8 17,9 18,5 33 18 51 28 SW 1004,2 24 0 6,8
30.06.2020 04:00:00 15,0 13,1 13,9 16,1 18,2 18,5 26 14 49 27 SW 1004,6 8 0 0,2
30.06.2020 03:00:00 14,9 12,7 13,7 16,3 18,5 18,5 29 16 53 29 SW 1005,0 27 0 0,4
30.06.2020 02:00:00 14,7 13,0 13,7 16,6 18,8 18,5 29 15 51 28 SW 1005,4 18 0 0,3
30.06.2020 01:00:00 14,3 13,5 13,7 17,0 19,0 18,5 31 17 63 34 SW 1006,0 8 0 2,7
30.06.2020 00:00:00 16,2 11,5 15,3 17,5 19,3 18,6 29 16 51 28 SSW 1005,9 25 0 0,1
29.06.2020 23:00:00 14,6 12,7 13,7 18,3 19,6 18,6 37 20 59 32 SW 1007,0 5 0 0,1
29.06.2020 22:00:00 16,9 10,4 16,6 18,8 19,8 18,6 30 16 51 28 SW 1006,7 38 0 0,0
29.06.2020 21:00:00 16,7 10,6 16,5 19,2 20,0 18,6 33 18 57 31 SW 1006,9 32 0 0,0
29.06.2020 20:00:00 16,3 11,3 16,4 19,7 20,1 18,6 31 17 48 26 SW 1007,4 32 0 0,0
29.06.2020 19:00:00 16,2 11,3 16,7 20,3 20,3 18,7 30 16 56 30 SSW 1008,0 39 0 0,0
29.06.2020 18:00:00 17,0 10,1 17,0 20,8 20,3 18,7 33 18 56 30 SW 1008,2 32 0 0,0
29.06.2020 17:00:00 16,8 10,1 16,3 22,0 20,2 18,7 34 19 56 30 SW 1008,2 23 0 0,0
29.06.2020 16:00:00 18,4 8,4 20,2 22,8 19,8 18,7 34 18 53 28 SW 1008,4 52 5 0,0
29.06.2020 15:00:00 18,7 8,6 20,9 22,2 19,4 18,7 29 16 54 29 SW 1008,8 62 31 0,0
29.06.2020 14:00:00 17,7 10,0 18,2 20,9 19,2 18,8 34 18 54 29 SW 1008,7 41 6 0,0
29.06.2020 13:00:00 17,8 9,9 19,6 21,0 18,9 18,8 23 13 46 25 SW 1008,9 40 2 0,0
29.06.2020 12:00:00 17,9 9,9 21,7 21,3 18,4 18,8 24 13 50 27 SSW 1008,8 56 36 0,0
29.06.2020 11:00:00 16,5 10,3 17,8 20,0 18,0 18,8 27 15 50 27 SSW 1008,9 47 44 0,0
29.06.2020 10:00:00 16,7 11,2 19,8 18,3 17,8 18,8 32 17 51 28 SSW 1008,9 40 56 0,0
29.06.2020 09:00:00 16,3 11,6 18,3 17,2 17,7 18,8 24 13 46 25 SSW 1008,5 36 59 0,0
29.06.2020 08:00:00 15,4 11,3 15,0 15,9 17,8 18,9 25 13 48 26 SSW 1008,4 39 53 0,0
29.06.2020 07:00:00 15,3 11,0 14,4 15,5 18,0 18,9 22 12 40 22 S 1008,7 42 60 0,0
29.06.2020 06:00:00 15,6 10,9 14,4 15,6 18,2 18,9 24 13 36 20 S 1009,3 42 6 0,0
29.06.2020 05:00:00 15,0 10,8 14,4 15,8 18,5 18,9 17 9 38 21 S 1009,6 43 0 0,0
29.06.2020 04:00:00 16,0 11,3 14,7 15,8 18,8 18,9 21 11 37 20 SSW 1009,9 46 0 0,0
29.06.2020 03:00:00 15,5 10,7 14,3 16,1 19,1 18,9 17 9 31 17 S 1010,2 41 0 0,0
29.06.2020 02:00:00 16,1 10,6 14,7 16,4 19,5 18,9 16 9 41 22 SSW 1010,8 47 0 0,0
29.06.2020 01:00:00 16,8 8,8 15,5 16,8 19,8 18,9 24 13 39 21 SW 1011,0 49 0 0,0
29.06.2020 00:00:00 17,0 9,0 15,4 17,4 20,3 19,0 19 10 41 22 SW 1011,2 54 0 0,0
28.06.2020 23:00:00 17,8 9,1 16,2 18,1 20,7 19,0 22 12 38 20 SW 1011,5 47 0 0,0
28.06.2020 22:00:00 18,3 9,6 16,9 18,9 21,0 19,0 23 12 44 24 SW 1011,4 51 15 0,0
28.06.2020 21:00:00 18,9 8,9 17,7 19,9 21,3 19,0 24 13 44 24 SW 1011,5 49 32 0,0
28.06.2020 20:00:00 19,3 8,3 18,6 21,0 21,5 19,0 24 13 48 26 SW 1011,4 60 38 0,0
28.06.2020 19:00:00 19,9 9,7 20,8 22,1 21,5 19,0 27 15 46 25 WSW 1011,3 35 52 0,0
28.06.2020 18:00:00 19,2 12,6 21,0 22,6 21,4 19,0 27 15 45 24 W 1011,4 21 46 0,0
28.06.2020 17:00:00 19,8 13,0 22,0 22,9 21,2 19,0 26 14 47 25 W 1011,3 33 51 0,0
28.06.2020 16:00:00 20,5 9,9 22,9 22,8 20,9 19,0 26 14 48 26 WSW 1010,9 49 54 0,0
28.06.2020 15:00:00 19,0 13,1 21,2 22,5 20,6 19,0 29 16 48 26 W 1010,8 23 46 0,0
28.06.2020 14:00:00 18,7 13,7 21,3 21,6 20,3 19,0 30 16 46 25 W 1010,6 22 35 0,0
28.06.2020 13:00:00 18,2 12,5 19,4 20,6 20,2 19,1 23 13 44 24 SW 1010,4 44 20 0,0
28.06.2020 12:00:00 16,3 11,4 15,1 19,4 20,2 19,1 37 20 55 30 SW 1010,4 21 2 0,4
28.06.2020 11:00:00 18,4 12,0 19,6 19,7 20,2 19,1 22 12 48 26 SW 1009,8 42 11 0,0
28.06.2020 10:00:00 18,1 11,5 19,0 19,0 20,3 19,0 29 16 47 26 SW 1009,2 44 5 0,0
28.06.2020 09:00:00 18,0 13,1 17,9 18,7 20,4 19,0 24 13 45 25 SW 1008,5 50 0 0,0
28.06.2020 08:00:00 18,3 13,9 18,0 18,8 20,6 19,0 25 13 49 26 SSW 1008,0 52 0 0,0
28.06.2020 07:00:00 18,8 14,0 18,4 18,8 20,8 19,0 25 14 40 22 SSW 1007,8 53 0 0,0
28.06.2020 06:00:00 18,0 15,0 17,5 18,9 21,1 19,0 22 12 38 20 S 1007,6 51 0 0,0
28.06.2020 05:00:00 17,7 15,3 17,3 19,0 21,4 19,0 18 10 31 17 S 1007,6 43 0 0,0
28.06.2020 04:00:00 17,7 15,2 16,9 19,2 21,7 19,0 15 8 33 18 S 1007,9 50 0 0,0
28.06.2020 03:00:00 18,9 13,1 17,2 19,7 22,1 19,0 21 12 37 20 SW 1008,3 69 0 0,0
28.06.2020 02:00:00 18,6 13,5 16,5 20,2 22,4 19,0 24 13 39 21 SW 1008,6 41 0 0,0
28.06.2020 01:00:00 19,5 16,0 17,6 20,7 22,7 19,0 16 9 29 16 SW 1008,4 59 0 0,2
28.06.2020 00:00:00 17,6 16,9 17,0 20,9 23,1 19,0 14 7 22 12 SE 1008,1 12 0 0,0
27.06.2020 23:00:00 17,5 16,9 16,9 21,5 23,6 19,0 11 6 16 9 ESE 1008,5 10 0 0,0
27.06.2020 22:00:00 17,8 16,9 16,8 22,2 24,0 19,0 4 2 29 15 E 1008,5 10 19 7,4
27.06.2020 21:00:00 19,2 16,9 18,2 24,0 24,3 18,9 8 5 18 10 NNW 1008,4 5 4 1,4
27.06.2020 20:00:00 20,0 16,3 19,6 24,6 24,5 18,9 6 3 19 10 NE 1007,8 28 5 0,5
27.06.2020 19:00:00 19,9 17,1 18,8 25,9 24,5 18,9 17 9 21 11 WNW 1008,2 9 4 0,4
27.06.2020 18:00:00 21,3 17,8 24,3 26,1 24,4 18,9 6 4 19 10 N 1008,0 24 55 0,0
27.06.2020 17:00:00 20,5 18,0 22,9 25,2 24,4 18,9 5 3 35 19 W 1007,7 19 13 4,2
27.06.2020 16:00:00 19,2 17,9 18,7 26,2 24,3 18,9 19 10 30 16 WNW 1008,4 1,2 10 1,6
27.06.2020 15:00:00 20,2 17,8 22,7 26,2 24,2 18,9 9 5 18 10 NNW 1008,2 21 12 0,0
27.06.2020 14:00:00 21,2 19,0 24,8 25,9 24,2 18,8 13 7 26 14 NW 1008,3 17 5 0,2
27.06.2020 13:00:00 22,8 19,4 21,7 26,9 23,9 18,8 17 9 40 22 SW 1008,3 12 6 0,1
27.06.2020 12:00:00 25,0 17,1 28,2 26,3 23,5 18,8 21 12 32 18 S 1007,7 49 47 0,0
27.06.2020 11:00:00 24,2 18,1 29,6 24,2 23,5 18,8 14 8 21 12 S 1007,9 42 39 0,0
27.06.2020 10:00:00 22,3 18,2 22,6 23,3 23,5 18,8 5 3 15 8 SSW 1008,1 30 0 0,0
27.06.2020 09:00:00 22,0 17,3 21,8 23,4 23,6 18,7 8 4 12 7 SW 1008,6 41 0 0,0
27.06.2020 08:00:00 22,0 17,4 23,0 22,9 23,8 18,7 8 4 18 10 SSW 1008,6 34 23 0,0
27.06.2020 07:00:00 21,3 17,5 20,7 22,7 24,0 18,7 9 5 19 11 S 1008,4 32 60 0,0
27.06.2020 06:00:00 20,4 16,9 18,3 22,9 24,3 18,7 4 2 11 6 SE 1008,6 34 13 0,0
27.06.2020 05:00:00 20,8 16,5 18,6 23,3 24,6 18,7 7 4 18 10 S 1008,9 36 0 0,0
27.06.2020 04:00:00 21,4 16,4 20,3 23,7 25,0 18,6 11 6 16 9 SE 1008,9 39 0 0,0
27.06.2020 03:00:00 21,0 16,9 19,3 24,2 25,3 18,6 10 6 16 9 SE 1009,3 39 0 0,0
27.06.2020 02:00:00 21,6 17,6 19,9 24,7 25,7 18,6 10 5 15 8 SE 1009,5 36 0 0,0
27.06.2020 01:00:00 21,7 17,6 19,8 25,4 26,0 18,6 9 5 13 7 ESE 1009,8 44 0 0,0
27.06.2020 00:00:00 23,1 16,1 21,1 26,1 26,4 18,6 8 4 14 7 ESE 1009,8 59 0 0,0
26.06.2020 23:00:00 22,8 17,4 20,9 27,1 26,7 18,6 6 4 13 7 E 1010,3 53 0 0,0
26.06.2020 22:00:00 24,0 17,1 22,7 28,1 26,9 18,5 9 5 21 11 E 1010,6 53 31 0,0
26.06.2020 21:00:00 25,8 16,0 25,1 29,2 27,0 18,5 10 5 19 11 E 1010,4 46 60 0,0
26.06.2020 20:00:00 26,2 15,7 27,1 30,1 27,0 18,5 12 6 23 12 E 1010,4 58 60 0,0
26.06.2020 19:00:00 28,9 12,4 30,9 30,8 26,8 18,5 11 6 26 14 SSE 1010,6 58 60 0,0
26.06.2020 18:00:00 28,8 11,9 31,7 31,2 26,5 18,5 18 10 33 18 SSE 1011,3 59 59 0,0
26.06.2020 17:00:00 29,2 12,1 32,2 31,5 26,0 18,5 17 9 32 18 SSE 1011,9 65 60 0,0
26.06.2020 16:00:00 29,0 10,9 33,2 31,3 25,5 18,5 20 11 34 18 SSE 1012,4 47 60 0,0
26.06.2020 15:00:00 28,9 11,8 33,4 30,8 24,9 18,5 20 11 35 19 SSE 1012,6 57 59 0,0
26.06.2020 14:00:00 28,0 13,0 33,2 30,0 24,3 18,5 17 9 31 17 SE 1013,0 62 60 0,0
26.06.2020 13:00:00 27,8 12,7 33,1 28,8 23,7 18,4 21 11 32 18 SSE 1013,8 35 60 0,0
26.06.2020 12:00:00 27,0 13,0 32,2 27,4 23,1 18,4 19 10 31 17 SSE 1014,1 51 60 0,0
26.06.2020 11:00:00 26,1 14,2 30,0 25,8 22,8 18,4 20 11 32 18 SE 1014,4 56 60 0,0
26.06.2020 10:00:00 24,2 14,6 27,4 24,2 22,5 18,4 19 10 32 17 SE 1014,8 55 60 0,0

tt = Température de l'air
td = dewpoint
tt 5cm = Température de l'air 5cm
tt -5cm = Température de l'air -5cm
tt -20cm = Température de l'air -20cm
tt -100cm = Température de l'air -100cm
ff = Vitesse du vent
fx = gusts
dd = Direction du vent
ppp = reduced air pressure
vv = visibility
sd = Ensoleillement
rr = Quantités de précipitations

stations d'obs. à proximité